Location: Ocean City
(38.3360°N, 75.0850°W)
Time: 17:36:26
(UTC-04:00)

MOZHAYETS 4 - Pass Details

Date: 27 May 2019
Orbit: 661 x 681 km, 98.0° (Epoch: 24 June)

Event Time Altitude Azimuth Distance (km) Brightness Sun altitude
Exits shadow 04:07:18 22° 257° (WSW) 1,479 9.0 -15.6°
Maximum altitude 04:07:44 22° 265° (W) 1,467 9.0 -15.6°
Drops below altitude 10° 04:11:18 10° 316° (NW) 2,107 10.3 -15.1°
Sets 04:13:59 0° 332° (NNW) 3,022 11.3 -14.7°
